When you browse on this site, cookies collect data to enhance your experience and personalize the content and advertising you see.
Visit our Privacy Policy to learn more. By continuing to use the site, you agree to this use of cookies and data.

Stündliche Wetter Suchumi

Heute, 9 August, Sonntag

Zeit Temperatur Niederschläge Wind Luftdruck Luftfeuchtigkeit
00:00 +25°C° 0 mm 3 m/S 747 mmHg 65%
01:00 +25°C° 0 mm 3 m/S 747 mmHg 66%
02:00 +25°C° 0 mm 2 m/S 747 mmHg 67%
03:00 +24°C° 0 mm 2 m/S 747 mmHg 66%
04:00 +25°C° 0 mm 2 m/S 747 mmHg 66%
05:00 +25°C° 0 mm 2 m/S 747 mmHg 66%
06:00 +25°C° 0 mm 2 m/S 747 mmHg 66%
07:00 +27°C° 0 mm 2 m/S 746 mmHg 62%
08:00 +29°C° 0 mm 1 m/S 746 mmHg 59%
09:00 +31°C° 0 mm 1 m/S 746 mmHg 53%
10:00 +32°C° 0 mm 1 m/S 746 mmHg 54%
11:00 +34°C° 0 mm 2 m/S 746 mmHg 54%
12:00 +34°C° 0 mm 2 m/S 746 mmHg 54%
13:00 +34°C° 0.1 mm 2 m/S 746 mmHg 55%
14:00 +34°C° 0.1 mm 2 m/S 746 mmHg 55%
15:00 +34°C° 0 mm 2 m/S 746 mmHg 56%
16:00 +32°C° 0.1 mm 2 m/S 746 mmHg 62%
17:00 +31°C° 0.1 mm 2 m/S 746 mmHg 68%
18:00 +30°C° 0.1 mm 2 m/S 746 mmHg 74%
19:00 +29°C° 0 mm 1 m/S 747 mmHg 77%
20:00 +27°C° 0 mm 1 m/S 747 mmHg 80%
21:00 +25°C° 0 mm 1 m/S 747 mmHg 82%
22:00 +25°C° 0 mm 1 m/S 747 mmHg 81%
23:00 +24°C° 0 mm 2 m/S 748 mmHg 80%

Morgen, 10 August, Montag

Zeit Temperatur Niederschläge Wind Luftdruck Luftfeuchtigkeit
00:00 +24°C° 0 mm 2 m/S 748 mmHg 80%
01:00 +24°C° 0 mm 2 m/S 748 mmHg 78%
02:00 +24°C° 0 mm 3 m/S 748 mmHg 76%
03:00 +24°C° 0 mm 3 m/S 747 mmHg 74%
04:00 +24°C° 0 mm 3 m/S 748 mmHg 73%
05:00 +24°C° 0 mm 2 m/S 748 mmHg 72%
06:00 +24°C° 0 mm 2 m/S 748 mmHg 71%
07:00 +26°C° 0 mm 2 m/S 748 mmHg 68%
08:00 +28°C° 0 mm 1 m/S 748 mmHg 64%
09:00 +31°C° 0 mm 1 m/S 747 mmHg 61%
10:00 +31°C° 0.2 mm 1 m/S 748 mmHg 61%
11:00 +32°C° 0.2 mm 2 m/S 748 mmHg 61%
12:00 +32°C° 0.2 mm 2 m/S 748 mmHg 61%
13:00 +32°C° 0.3 mm 2 m/S 748 mmHg 62%
14:00 +32°C° 0.3 mm 2 m/S 748 mmHg 63%
15:00 +32°C° 0.3 mm 2 m/S 748 mmHg 64%
16:00 +31°C° 0.1 mm 1 m/S 748 mmHg 68%
17:00 +30°C° 0.1 mm 1 m/S 748 mmHg 72%
18:00 +30°C° 0.1 mm 1 m/S 748 mmHg 76%
19:00 +28°C° 0.1 mm 1 m/S 748 mmHg 81%
20:00 +26°C° 0.1 mm 1 m/S 749 mmHg 86%
21:00 +25°C° 0.1 mm 1 m/S 749 mmHg 90%
22:00 +25°C° 0.3 mm 1 m/S 749 mmHg 89%
23:00 +24°C° 0.3 mm 2 m/S 749 mmHg 88%

übermorgen, 11 August, Dienstag

Zeit Temperatur Niederschläge Wind Luftdruck Luftfeuchtigkeit
00:00 +24°C° 0.3 mm 2 m/S 749 mmHg 87%
01:00 +24°C° 1.7 mm 2 m/S 749 mmHg 89%
02:00 +24°C° 1.7 mm 3 m/S 749 mmHg 90%
03:00 +22°C° 1.7 mm 3 m/S 749 mmHg 92%
04:00 +24°C° 3.5 mm 3 m/S 749 mmHg 92%
05:00 +23°C° 3.5 mm 4 m/S 749 mmHg 92%
06:00 +23°C° 3.5 mm 4 m/S 749 mmHg 92%
07:00 +22°C° 3.1 mm 5 m/S 749 mmHg 92%
08:00 +22°C° 3.1 mm 6 m/S 749 mmHg 91%
09:00 +21°C° 3.1 mm 6 m/S 749 mmHg 91%
10:00 +23°C° 1.5 mm 5 m/S 749 mmHg 86%
11:00 +25°C° 1.5 mm 4 m/S 750 mmHg 81%
12:00 +26°C° 1.5 mm 3 m/S 750 mmHg 77%
13:00 +27°C° 0.2 mm 3 m/S 750 mmHg 70%
14:00 +29°C° 0.2 mm 3 m/S 750 mmHg 64%
15:00 +30°C° 0.2 mm 4 m/S 750 mmHg 58%
16:00 +29°C° 0.3 mm 3 m/S 750 mmHg 64%
17:00 +28°C° 0.3 mm 3 m/S 750 mmHg 71%
18:00 +27°C° 0.3 mm 3 m/S 750 mmHg 78%
19:00 +26°C° 0.2 mm 3 m/S 750 mmHg 81%
20:00 +25°C° 0.2 mm 4 m/S 751 mmHg 85%
21:00 +22°C° 0.2 mm 4 m/S 751 mmHg 88%
22:00 +22°C° 0.3 mm 4 m/S 751 mmHg 86%
23:00 +22°C° 0.3 mm 4 m/S 751 mmHg 85%

12 August, Mittwoch

Zeit Temperatur Niederschläge Wind Luftdruck Luftfeuchtigkeit
00:00 +22°C° 0.3 mm 4 m/S 751 mmHg 83%
01:00 +21°C° 0.2 mm 4 m/S 751 mmHg 83%
02:00 +21°C° 0.2 mm 5 m/S 751 mmHg 84%
03:00 +21°C° 0.2 mm 5 m/S 751 mmHg 84%
04:00 +21°C° 0 mm 5 m/S 751 mmHg 83%
05:00 +21°C° 0 mm 5 m/S 751 mmHg 82%
06:00 +21°C° 0 mm 4 m/S 751 mmHg 82%
07:00 +23°C° 0 mm 5 m/S 751 mmHg 77%
08:00 +26°C° 0 mm 5 m/S 751 mmHg 73%
09:00 +28°C° 0 mm 5 m/S 751 mmHg 69%
10:00 +28°C° 0.1 mm 5 m/S 751 mmHg 71%
11:00 +29°C° 0.1 mm 5 m/S 751 mmHg 73%
12:00 +29°C° 0.1 mm 5 m/S 751 mmHg 75%
13:00 +29°C° 0.3 mm 5 m/S 751 mmHg 78%
14:00 +28°C° 0.3 mm 4 m/S 751 mmHg 81%
15:00 +28°C° 0.3 mm 3 m/S 751 mmHg 85%
16:00 +28°C° 0.1 mm 3 m/S 751 mmHg 85%
17:00 +28°C° 0.1 mm 3 m/S 751 mmHg 86%
18:00 +27°C° 0.1 mm 3 m/S 751 mmHg 86%
19:00 +26°C° 0.3 mm 2 m/S 751 mmHg 88%
20:00 +25°C° 0.3 mm 2 m/S 752 mmHg 90%
21:00 +24°C° 0.3 mm 2 m/S 752 mmHg 93%
22:00 +23°C° 0.3 mm 2 m/S 752 mmHg 92%
23:00 +22°C° 0.3 mm 3 m/S 752 mmHg 92%

13 August, Donnerstag

Zeit Temperatur Niederschläge Wind Luftdruck Luftfeuchtigkeit
00:00 +21°C° 0.3 mm 3 m/S 752 mmHg 91%
01:00 +21°C° 0.3 mm 3 m/S 751 mmHg 91%
02:00 +21°C° 0.3 mm 3 m/S 751 mmHg 90%
03:00 +21°C° 0.3 mm 3 m/S 751 mmHg 89%
04:00 +21°C° 0.2 mm 3 m/S 751 mmHg 89%
05:00 +21°C° 0.2 mm 3 m/S 751 mmHg 89%
06:00 +21°C° 0.2 mm 3 m/S 751 mmHg 89%
07:00 +24°C° 0.2 mm 3 m/S 751 mmHg 85%
08:00 +26°C° 0.2 mm 3 m/S 751 mmHg 81%
09:00 +28°C° 0.2 mm 3 m/S 751 mmHg 77%
10:00 +28°C° 0.5 mm 3 m/S 751 mmHg 76%
11:00 +29°C° 0.5 mm 3 m/S 751 mmHg 76%
12:00 +29°C° 0.5 mm 3 m/S 751 mmHg 76%
13:00 +29°C° 0.8 mm 2 m/S 751 mmHg 78%
14:00 +29°C° 0.8 mm 2 m/S 751 mmHg 81%
15:00 +28°C° 0.8 mm 1 m/S 750 mmHg 84%
16:00 +28°C° 0.5 mm 1 m/S 750 mmHg 85%
17:00 +27°C° 0.5 mm 2 m/S 751 mmHg 87%
18:00 +27°C° 0.5 mm 2 m/S 751 mmHg 89%
19:00 +26°C° 0.4 mm 2 m/S 751 mmHg 90%
20:00 +24°C° 0.4 mm 1 m/S 751 mmHg 91%
21:00 +23°C° 0.4 mm 1 m/S 751 mmHg 92%
22:00 +23°C° 0.5 mm 2 m/S 751 mmHg 92%
23:00 +21°C° 0.5 mm 2 m/S 751 mmHg 92%

14 August, Freitag

Zeit Temperatur Niederschläge Wind Luftdruck Luftfeuchtigkeit
00:00 +21°C° 0.5 mm 2 m/S 751 mmHg 92%
01:00 +21°C° 0.4 mm 3 m/S 751 mmHg 92%
02:00 +20°C° 0.4 mm 3 m/S 751 mmHg 92%
03:00 +20°C° 0.4 mm 3 m/S 750 mmHg 92%
04:00 +20°C° 0.3 mm 3 m/S 750 mmHg 92%
05:00 +20°C° 0.3 mm 3 m/S 750 mmHg 91%
06:00 +20°C° 0.3 mm 3 m/S 750 mmHg 91%
07:00 +22°C° 0.2 mm 3 m/S 750 mmHg 89%
08:00 +24°C° 0.2 mm 3 m/S 750 mmHg 86%
09:00 +26°C° 0.2 mm 3 m/S 750 mmHg 84%
10:00 +26°C° 0.4 mm 2 m/S 750 mmHg 83%
11:00 +27°C° 0.4 mm 2 m/S 750 mmHg 81%
12:00 +27°C° 0.4 mm 2 m/S 750 mmHg 80%
13:00 +28°C° 0.2 mm 2 m/S 750 mmHg 77%
14:00 +28°C° 0.2 mm 2 m/S 750 mmHg 74%
15:00 +28°C° 0.2 mm 2 m/S 750 mmHg 71%
16:00 +28°C° 0.1 mm 1 m/S 750 mmHg 75%
17:00 +27°C° 0.1 mm 1 m/S 750 mmHg 79%
18:00 +26°C° 0.1 mm 1 m/S 750 mmHg 83%
19:00 +25°C° 0.1 mm 1 m/S 751 mmHg 86%
20:00 +23°C° 0.1 mm 1 m/S 751 mmHg 89%
21:00 +21°C° 0.1 mm 2 m/S 751 mmHg 91%
22:00 +21°C° 0.2 mm 2 m/S 751 mmHg 91%
23:00 +20°C° 0.2 mm 2 m/S 751 mmHg 90%
Mehr zeigen